Regional Weather Roundup
Issued by NWS

Home | Current Version | Previous Version | Text Only | Print | Product List | Glossary On
Versions: 1 2 3 4 5 6 7 8 9 10 11 12 13 14 15 16 17 18 19 20 21 22 23 24 25 26 27 28 29 30 31 32 33 34 35 36 37 38 39 40 41 42 43 44 45 46 47 48 49 50
000
ASUS44 KJAN 012303
RWRMS

MISSISSIPPI HOURLY WEATHER ROUNDUP
NATIONAL WEATHER SERVICE JACKSON MS
600 PM CDT SAT AUG 01 2015

NOTE: "FAIR: INDICATES FEW OR NO CLOUDS BELOW 12,000 FEET WITH NO
SIGNIFICANT WEATHER AND/OR OBSTRUCTIONS TO VISIBILITY.

MSZ001>002-007>008-010>013-018>021-025>028-034>036-020000-
NORTHWEST MISSISSIPPI

CITY           SKY/WX    TMP DP  RH WIND       PRES   REMARKS
CLARKSDALE     FAIR      91  68  46 NW7       29.96S HX  95
CLEVELAND      FAIR      93  63  36 NE7       29.94F HX  94
GREENWOOD      SUNNY     93  59  31 NE10      29.93F HX  92
GREENVILLE     SUNNY     93  67  42 N8        29.93F HX  96
OLIVE BRANCH   MOSUNNY   91  61  35 NE9       29.96F HX  91
OXFORD         FAIR      91  61  35 N5        29.98S HX  91
TUNICA         CLEAR     91  61  35 NW8       29.96F HX  91
$$

MSZ003>006-009-014>017-022>024-029>033-037>039-020000-
NORTHEAST MISSISSIPPI

CITY           SKY/WX    TMP DP  RH WIND       PRES   REMARKS
COLUMBUS AFB   MOSUNNY   93  59  31 N13       29.91F HX  92
CORINTH        FAIR      91  64  40 NE3       29.95S HX  93
GOLDN TRIANGLE SUNNY     95  57  28 NE12      29.92S HX  94
STARKVILLE     FAIR      90  63  40 N5        29.93S HX  90
TUPELO         SUNNY     91  62  37 NE9       29.94F HX  91
$$

MSZ040-058-020000-
CENTRAL MISSISSIPPI

CITY           SKY/WX    TMP DP  RH WIND       PRES   REMARKS
JACKSON INTL   SUNNY     95  54  25 N17       29.90F HX  93
JACKSON HAWKNS SUNNY     94  50  22 NE7G20    29.91F HX  91
MERIDIAN KEY   SUNNY     92  57  30 NE10      29.89S HX  90
MERIDIAN NAS   SUNNY     93  59  31 NE5       29.89F HX  92
VICKSBURG      SUNNY     94  60  32 N9        29.91F HX  94
$$

MSZ059>079-020000-
SOUTH MISSISSIPPI

CITY           SKY/WX    TMP DP  RH WIND       PRES   REMARKS
BROOKHAVEN     FAIR      91  57  31 N13       29.91F HX  90
HATTIESBURG    SUNNY     93  58  30 NE7       29.88S HX  92
MCCOMB         SUNNY     95  57  27 N8        29.88F HX  94
NATCHEZ        SUNNY     90  64  43 N12       29.91S HX  91
PINE BELT      SUNNY     91  43  18 NE13G18   29.90S
$$

MSZ080>082-020000-
COASTAL MISSISSIPPI

CITY           SKY/WX    TMP DP  RH WIND       PRES   REMARKS
BAY ST LOUIS   SUNNY     90  61  37 N7        29.86S
BILOXI         SUNNY     92  67  44 NE7       29.85S HX  95
PASCAGOULA     MOSUNNY   92  68  45 N6        29.85R HX  96
GULFPORT       PTSUNNY   94  67  41 N10       29.84S HX  97
$$


USA.gov is the U.S. government's official web portal to all federal, state and local government web resources and services.